Location: Rosenheim
(47.8408°N, 12.2113°E)
Time: 06:44:32
(UTC+02:00)

ISS - Pass Details

Date: 21 March 2017
Orbit: 401 x 408 km, 51.6° (Epoch: 22 October)

Event Time Altitude Azimuth Distance (km) Brightness Sun altitude
Exits shadow 03:18:06 15° 93° (E) 1,262 -0.8 -28.2°
Drops below altitude 10° 03:18:44 10° 96° (E) 1,511 -0.4 -28.1°
Enters shadow 04:19:40 -59° 298° (WNW) 11,439 3.5 -19.2°
